Location: Pinhey's Point
(45.4411°N, 75.9539°W)
Time: 11:22:30
(UTC-04:00)

Daily predictions for brighter satellites

Satellite Brightness Start Highest point End
(mag) Time Altitude Azimuth Time Altitude Azimuth Time Altitude Azimuth
Cosmos 2228 Rocket 4.0 21:26:09 10° NNW 21:30:29 51° W 21:34:50 10° SSW
SL-12 R/B (AUX MOTOR) 4.2 21:30:14 10° WSW 21:32:10 44° SSE 21:33:33 10° E
SL-16 R/B 3.0 21:28:34 10° NW 21:34:02 50° WSW 21:39:28 10° S
Cosmos 2360 Rocket 2.3 21:28:43 10° NNW 21:34:21 69° ENE 21:40:00 10° SE
Cosmos 1743 Rocket 4.1 21:31:35 10° SSW 21:36:02 65° W 21:40:29 10° N
ATLAS CENTAUR R/B 3.8 21:36:48 10° WNW 21:39:55 18° WSW 21:42:51 10° SSW
SL-23 DEB 4.1 21:34:20 10° WNW 21:40:11 88° NE 21:43:46 10° ESE
Cosmos 968 Rocket 4.0 21:35:36 10° SSW 21:40:46 68° WNW 21:46:01 10° NNE
Cosmos 1908 3.2 21:37:20 10° N 21:41:16 85° E 21:45:10 10° S
Cosmos 1500 Rocket 3.7 21:38:01 10° S 21:42:23 80° W 21:46:50 10° N
deb Chang Zheng 4 3.9 21:42:11 10° N 21:46:30 70° WNW 21:50:48 10° SSW
MetOp-B 4.2 21:46:21 10° SSE 21:51:42 80° ENE 21:57:05 10° NNW
Cosmos 1939 Rocket 3.9 21:49:39 10° S 21:53:27 44° W 21:57:12 10° NNW
Meteor 1-4 Rocket 4.3 21:54:12 10° NNE 21:57:10 21° ENE 21:59:48 11° ESE
Cosmos 1674 2.8 21:56:11 10° SSW 22:00:00 78° W 22:03:53 10° N
Envisat 3.6 21:55:25 10° S 22:00:23 55° W 22:05:24 10° NNW
SPOT 5 3.1 21:56:20 10° S 22:00:51 66° WSW 22:05:38 10° NNW
Cosmos 2227 Rocket 4.0 22:00:43 10° ESE 22:02:56 12° E 22:05:11 10° ENE
ATLAS 2AS CENTAUR R/B 4.5 22:00:49 11° SE 22:04:07 14° E 22:07:47 10° ENE
SL-08 RB Rocket 4.0 22:02:37 12° SE 22:06:33 52° ENE 22:10:56 10° N
Cosmos 1833 4.3 22:01:30 10° SSW 22:07:13 90° WNW 22:12:56 10° NNE
Cosmos 1437 Rocket 4.2 22:04:26 10° NNW 22:07:54 35° W 22:11:24 10° SSW
Cosmos 2112 Rocket 4.0 22:02:39 10° NNW 22:07:55 88° WSW 22:12:50 12° SSE
Cosmos 1300 3.0 22:04:09 10° N 22:07:56 52° ENE 22:11:00 14° SSE
Cosmos 2333 Rocket 3.5 22:03:09 10° N 22:08:08 29° NE 22:13:07 10° ESE
SL-16 R/B 4.4 22:08:41 10° N 22:11:59 15° NE 22:15:18 10° ENE
DELTA 2 R/B (1) 4.3 22:07:19 10° W 22:12:21 36° SSW 22:16:24 15° SE
USA 245 2.0 22:10:34 15° SSE 22:12:35 86° ENE 22:14:57 10° NNW
Cosmos 1437 2.8 22:09:58 10° SSW 22:13:14 81° W 22:16:33 10° N
Cosmos 2315 Rocket 4.0 22:13:03 10° N 22:19:17 85° W 22:25:28 10° S
COSMOS 2428 2.7 22:14:26 10° NNW 22:20:09 78° ENE 22:24:46 16° SSE
CARTOSAT-1 4.4 22:17:10 15° SE 22:20:13 36° ENE 22:24:12 10° N
ATLAS 3B R/B 4.2 22:15:00 10° NNW 22:21:13 30° NNE 22:27:06 10° E
Cosmos 1937 Rocket 4.5 22:18:23 15° SSE 22:21:44 28° E 22:26:08 10° NE
Sich 1 3.4 22:20:01 14° SSE 22:23:35 48° E 22:27:51 10° NNE
Cosmos 1633 Rocket 3.4 22:21:04 15° SSE 22:24:28 46° E 22:28:41 10° NNE
Cosmos 2151 3.5 22:20:31 10° SSW 22:24:40 61° W 22:28:51 10° N
YAOGAN 6 3.4 22:23:27 10° S 22:26:57 48° W 22:30:28 10° NNW
NOSS 3-1 (C) 3.6 22:22:33 10° SSW 22:28:14 53° ESE 22:34:32 10° NE
Cosmos 2297 Rocket 3.9 22:28:39 13° ESE 22:30:15 15° E 22:33:16 10° ENE
Cosmos 1455 3.7 22:27:35 10° NNE 22:30:41 23° ENE 22:32:31 17° ESE
CZ-4C R/B 3.0 22:29:16 21° SSE 22:31:29 66° ENE 22:34:56 10° N
Cosmos 1328 4.4 22:29:26 10° SSW 22:33:19 55° WNW 22:37:13 10° N
H-2A R/B 2.4 22:29:35 17° SE 22:33:35 59° ENE 22:38:56 10° N
Cosmos 2219 Rocket 2.5 22:31:14 10° NNW 22:36:44 55° ENE 22:40:42 19° SE
Cosmos 1805 Rocket 3.7 22:34:00 10° SSW 22:38:28 76° W 22:42:56 10° N
Lacrosse 4 Rocket 3.9 22:36:35 10° N 22:39:11 15° NE 22:41:48 10° ENE
Cosmos 2237 4.4 22:36:04 10° NNW 22:41:47 70° WSW 22:46:02 18° SSE
ARGOS 3.5 22:37:02 13° S 22:41:48 65° WSW 22:47:11 10° NNW
Landsat 7 3.8 22:39:24 19° SSE 22:42:50 86° ENE 22:47:37 10° NNW
SPOT 1/Viking Rocket 4.3 22:41:07 11° S 22:45:51 48° W 22:50:51 10° NNW
Nadezhda 1 Rocket 4.1 22:42:33 10° N 22:48:34 59° ENE 22:52:38 21° SSE
Cosmos 2058 3.7 22:46:36 10° SSW 22:50:35 50° WNW 22:54:37 10° N
Cosmos 292 Rocket 3.7 22:46:00 10° NNW 22:50:49 79° ENE 22:53:38 24° SSE
CZ-4B R/B 4.3 22:46:13 10° N 22:51:23 55° WNW 22:56:28 10° SSW
Cosmos 1980 4.1 22:46:31 10° NNW 22:52:04 53° ENE 22:55:44 21° SE
Cosmos 1707 Rocket 4.4 22:50:28 10° NNW 22:54:39 47° W 22:58:03 15° SSW
Spot 4 4.0 22:52:29 24° SSE 22:55:24 64° ENE 23:00:13 10° N
Cosmos 2219 3.6 22:51:47 10° SW 22:57:31 68° WNW 23:03:16 10° NNE
COSMOS 2455 4.0 22:52:22 10° NNW 22:57:50 34° NE 23:02:41 13° ESE
Terra 1.8 22:55:46 24° SSE 22:58:42 86° ENE 23:03:30 10° NNW
SAR-Lupe-2 3.5 22:57:19 31° SSE 22:58:55 76° ENE 23:02:31 10° N
SL-14 R/B 3.8 22:56:58 13° SSW 23:00:21 58° WNW 23:04:19 10° N
Cosmos 1726 3.0 22:56:44 10° NNW 23:00:21 45° W 23:02:46 19° SSW
Cosmos 1666 Rocket 4.0 22:56:36 11° SSW 23:00:41 59° W 23:05:05 10° N
Cosmos 1703 3.1 22:58:43 25° S 23:00:56 79° E 23:04:51 10° N
Cosmos 1271 Rocket 2.8 22:57:26 10° NNW 23:01:16 74° W 23:03:14 27° S
Cosmos 1898 Rocket 3.4 22:56:18 11° SSW 23:01:19 85° ESE 23:06:33 10° NNE
Cosmos 2333 4.5 22:56:19 10° NNW 23:01:59 65° WSW 23:05:40 22° S
Cosmos 1745 Rocket 4.0 22:57:28 18° S 23:02:18 76° E 23:08:30 10° NNE
Cosmos 2150 Rocket 4.1 22:57:19 10° SSW 23:02:46 88° ESE 23:08:16 10° NNE
SL-08 R/B 4.5 22:58:31 15° S 23:03:48 88° E 23:10:08 10° N
Cosmos 2237 Rocket 2.4 22:59:36 10° NNW 23:05:17 62° ENE 23:08:42 24° SE
Cosmos 1346 3.4 23:07:04 42° ESE 23:07:25 44° E 23:10:21 10° NNE
Cosmos 858 Rocket 4.4 23:04:03 12° SSW 23:08:51 89° ESE 23:14:05 10° NNE
Cosmos 2082 4.1 23:07:20 25° SSE 23:10:14 43° ESE 23:15:37 10° NE
DMSP B5D2-2 4.0 23:06:18 10° NNE 23:11:34 80° ESE 23:15:08 21° S
Cosmos 1470 Rocket 3.4 23:11:47 28° S 23:14:02 78° E 23:18:21 10° NNE
Cosmos 220 Rocket 3.9 23:12:13 24° S 23:14:49 76° ESE 23:19:16 10° NNE
Cosmos 1933 Rocket 3.5 23:13:06 28° S 23:15:27 78° E 23:19:56 10° NNE
IGS 5A 3.7 23:14:41 28° S 23:16:45 66° W 23:20:55 10° NNW
Iridium 2 4.0 23:14:54 25° SSW 23:16:59 65° W 23:20:50 10° N
Cosmos 2360 Rocket 4.2 23:13:56 10° WNW 23:17:45 19° W 23:21:35 10° SW
SeaSat 1 3.1 23:15:33 22° ESE 23:18:27 46° NE 23:23:10 10° NNW
Cosmos 1933 4.2 23:17:31 10° N 23:21:18 36° ENE 23:22:33 29° ESE
NOSS 0 Rocket 4.0 23:23:55 10° NNW 23:30:03 69° WSW 23:33:19 29° S
Cosmos 2181 Rocket 4.3 23:24:04 10° N 23:30:20 57° ENE 23:33:42 28° SE
NOSS 3-1 (A) 3.5 23:25:05 10° SW 23:31:02 81° NW 23:37:45 10° NE
Cosmos 1386 Rocket 4.4 23:27:31 23° S 23:31:26 89° W 23:37:29 10° N
Meteor 1-4 Rocket 4.3 23:29:08 10° NNW 23:32:22 27° W 23:34:10 19° SW
Cosmos 192 4.3 23:33:06 10° NNW 23:38:03 90° ENE 23:40:02 37° SSE
CZ-4C R/B 4.4 23:40:38 25° E 23:41:20 27° ENE 23:44:24 10° N
Cosmos 1626 2.4 23:40:11 36° SSW 23:41:33 65° W 23:45:18 10° N
Cosmos 468 4.5 23:40:20 10° NNW 23:45:43 84° ENE 23:47:58 36° SSE
Cosmos 2227 Rocket 2.1 23:42:28 24° SSW 23:46:03 84° ESE 23:51:46 10° NNE
ERBS 3.3 23:51:23 34° E 23:51:23 34° E 23:53:43 10° ENE
IKONOS-2 4.5 23:50:00 45° SSE 23:51:18 84° ENE 23:55:37 10° NNW
Cosmos 2333 Rocket 2.6 23:47:07 10° NW 23:52:41 52° WSW 23:55:11 31° SSW
Cosmos 1862 Rocket 4.4 23:48:57 10° NNW 23:53:03 41° W 23:54:46 28° SW
